SCP
0 0 0 0 0 0 0 0 0 0 0 0 0 0 0 0 0 0 0 0 0 0 0 0 0 0 0 0 0 0 0 0 1 1 2 2 2 2 2 2 2 2 2 1
0 0 0 0 0 0 0 0 0 0 0 0 0 0 0 0 0 0 0 0 0 0 0 0 0 0 0 0 0 0 0 0 0 1 1 2 2 2 2 2 2 2 2 2
0 0 0 0 0 0 0 0 0 0 0 0 0 0 0 0 0 0 0 0 0 0 0 0 0 0 0 0 0 0 0 0 0 0 1 1 1 2 2 2 2 2 2 2
0 0 0 0 0 0 0 0 0 0 0 0 0 0 0 0 0 0 0 0 0 0 0 0 0 0 0 0 0 0 0 0 0 0 0 1 1 1 1 1 2 2 2 2
0 0 0 0 0 0 0 0 0 0 0 0 0 0 0 0 0 0 0 0 0 0 0 0 0 0 0 0 0 0 0 0 0 0 0 0 1 1 1 1 1 1 1 1
0 0 0 0 0 0 0 0 0 0 0 0 0 0 0 0 0 0 0 0 0 0 0 0 0 0 0 0 0 0 0 0 0 0 0 0 0 1 1 1 1 1 1 1
0 0 0 0 0 0 0 0 0 0 0 0 0 0 0 0 0 0 0 0 0 0 0 0 0 0 0 0 0 0 0 0 0 0 0 0 0 1 1 1 1 1 1 1
0 0 -0 -0 -0 0 0 0 0 0 0 0 0 0 0 0 0 0 0 0 0 0 0 0 0 0 0 0 0 0 0 0 0 0 0 0 0 1 1 1 1 1 1 1
0 0 -0 -0 -0 -0 -0 0 0 0 0 0 0 0 0 0 0 0 0 0 0 0 0 0 0 0 0 0 0 0 0 0 0 0 0 0 0 0 0 0 1 1 1 1
0 0 -0 -0 -0 -0 -0 -0 0 0 0 0 0 0 0 0 0 0 0 0 0 0 0 0 0 0 0 0 0 0 0 0 0 0 0 0 0 0 0 0 0 0 0 0
0 0 0 0 0 0 0 -0 -0 0 0 0 0 0 0 0 0 0 0 0 0 0 0 0 0 0 0 0 0 0 0 0 0 0 0 0 0 0 0 0 0 0 0 0
0 0 0 0 0 0 0 -0 -0 -0 -0 0 0 0 0 0 0 0 0 0 0 0 0 0 0 0 0 0 0 0 0 0 0 0 0 0 0 0 0 0 0 0 0 0
0 0 0 0 0 0 0 -0 -0 -0 -0 0 0 0 0 0 0 0 0 0 0 0 0 0 0 0 0 0 0 0 0 0 0 0 0 0 0 0 0 0 0 0 0 0
0 0 0 0 0 0 0 -0 -0 0 0 0 0 0 0 0 0 0 0 0 0 0 0 0 0 0 0 0 0 0 0 0 0 0 0 0 0 0 0 0 0 0 0 0
-0 0 0 0 0 0 0 0 0 0 0 0 0 0 0 0 0 0 0 0 0 0 0 0 0 0 0 0 0 0 0 0 0 0 0 0 0 0 0 0 0 0 0 0
0 0 0 0 0 0 0 0 0 0 0 0 0 0 0 0 0 0 0 0 0 0 0 0 0 0 0 0 0 0 0 0 0 0 0 0 0 0 0 0 0 0 0 0
0 0 0 0 0 0 0 0 0 0 0 0 0 0 0 0 0 0 0 0 0 0 0 0 0 0 0 0 0 0 0 0 0 0 0 0 0 0 0 0 0 0 0 0
0 0 0 0 0 0 0 0 0 0 0 0 0 0 0 0 0 0 0 0 0 0 0 0 0 0 0 0 0 0 0 0 0 0 0 0 0 0 0 0 0 0 0 0
0 0 0 0 0 0 0 0 0 0 0 0 0 0 0 0 0 0 0 0 0 0 0 0 0 0 0 0 0 0 0 0 0 0 0 0 0 0 0 0 0 0 0 0
0 0 0 0 0 0 0 0 0 0 0 0 0 0 0 0 0 0 0 0 0 0 0 0 0 0 0 0 0 0 0 0 0 0 0 0 0 0 0 0 0 0 0 0
0 0 0 0 0 0 0 0 0 0 0 0 0 0 0 0 0 0 0 0 0 0 0 0 0 0 0 0 0 0 0 0 0 0 0 0 0 0 0 0 0 0 0 0
0 0 0 0 0 0 0 0 0 0 0 0 0 0 0 0 0 0 0 0 0 0 0 0 0 0 0 0 0 0 0 0 0 0 0 0 0 0 0 0 0 0 0 0
0 0 0 0 0 0 0 0 0 0 0 0 0 0 0 0 0 -0 -0 -0 -0 -0 0 0 0 0 0 0 0 0 0 0 0 0 0 0 0 0 0 0 0 0 0 0
0 0 0 0 0 0 0 0 0 0 0 0 0 0 0 0 0 -0 -0 -0 -0 -0 -0 0 0 0 0 0 0 0 0 0 0 0 0 0 0 0 0 0 0 0 0 0
0 0 0 0 0 0 0 0 0 0 0 0 0 0 -0 -0 -0 -0 -0 -0 -0 -0 -0 0 0 0 0 0 0 0 0 0 0 0 0 0 0 0 0 0 0 0 0 0
0 0 0 0 0 0 0 0 0 0 0 0 0 0 -0 -0 -0 -0 -0 -0 -0 -0 -0 -0 0 0 0 0 0 0 0 0 0 0 0 0 0 0 0 0 0 0 0 0
Wind_Speed
8 10 7 6 5 2 2 3 3 3 4 9 11 10 8 10 13 13 13 12 12 10 9 9 9 9 9 10 10 9 9 9 8 5 4 3 4 4 5 6 7 7 7 7
9 7 5 5 5 5 4 3 2 2 5 7 8 8 6 8 10 9 10 11 12 13 12 12 11 10 10 10 10 9 9 9 8 6 5 4 4 3 4 4 6 7 7 7
9 3 5 5 7 6 3 3 0 0 4 5 4 4 6 5 6 10 12 10 11 12 13 13 12 10 10 10 10 9 10 9 9 9 6 5 3 2 2 4 4 5 7 7
7 4 4 5 5 4 2 2 2 2 3 2 2 0 5 8 8 13 14 13 13 13 12 11 11 11 11 10 9 9 9 8 9 8 7 7 4 3 3 3 3 4 5 6
4 3 5 5 4 3 3 3 1 2 5 5 7 3 5 7 10 15 14 14 13 12 12 12 11 10 9 9 8 8 8 8 8 8 8 7 5 3 2 1 2 3 3 4
4 3 3 3 3 2 3 2 5 6 6 5 4 2 4 5 9 14 14 14 13 13 12 11 10 9 9 9 8 7 8 8 8 8 8 8 7 5 3 2 1 1 1 2
6 6 6 4 7 7 8 5 4 6 6 2 2 3 2 5 8 9 12 13 13 11 12 11 12 11 11 11 9 8 8 8 8 8 8 7 7 6 5 4 2 2 2 1
4 5 6 6 3 3 4 5 5 3 2 1 3 3 3 4 7 8 9 9 11 12 12 12 11 10 10 10 10 9 8 8 8 8 8 7 7 5 4 5 4 3 2 2
4 0 3 3 4 3 3 4 2 6 3 2 2 2 3 5 10 10 11 11 11 12 12 13 12 10 10 10 10 9 9 8 8 8 8 7 7 6 5 5 4 3 3 2
6 3 3 4 6 7 4 3 5 5 3 2 2 3 5 10 12 12 12 11 12 11 11 12 11 10 10 9 8 9 9 8 8 8 7 6 7 6 5 5 5 4 4 3
4 5 3 5 6 5 5 5 6 5 4 4 1 2 3 6 8 9 10 10 10 10 10 9 9 9 8 9 9 9 9 9 9 9 8 8 8 7 7 6 6 4 4 3
3 6 2 2 1 2 4 3 3 4 2 2 2 3 4 4 6 6 8 9 9 8 8 7 8 8 8 9 9 9 9 9 9 8 8 8 8 8 8 8 7 6 5 4
5 6 3 5 5 4 5 3 3 5 4 2 2 4 4 5 6 6 6 8 8 8 8 7 7 7 7 7 8 8 8 8 8 8 8 9 9 9 9 9 8 8 7 7
6 5 4 3 2 0 2 2 2 4 4 2 2 3 5 6 7 8 8 8 7 7 6 6 6 6 6 6 6 7 7 7 7 7 8 8 8 8 8 8 8 8 8 8
5 5 3 2 2 2 1 1 2 3 5 5 4 3 6 6 5 6 6 7 7 7 7 6 6 5 5 6 6 6 6 7 6 7 7 7 7 7 7 8 8 8 8 9
4 5 2 2 1 2 0 1 2 2 3 3 2 4 6 5 3 4 5 6 6 7 7 7 6 6 5 5 5 5 5 6 5 6 6 6 6 7 7 7 7 8 8 8
3 5 4 0 1 3 5 7 7 4 4 6 6 6 3 2 4 4 4 5 6 6 6 6 6 5 5 4 4 4 4 4 5 6 6 6 6 6 6 6 7 7 7 7
6 5 4 3 2 4 7 3 7 5 5 7 6 5 5 5 4 4 4 4 5 6 5 6 6 6 4 3 3 2 3 4 4 5 5 6 6 6 6 6 6 6 5 6
4 7 5 3 2 7 5 4 7 6 5 8 8 6 4 2 2 4 3 2 3 4 4 4 4 4 4 4 3 2 3 4 4 4 5 5 5 5 6 6 5 5 5 6
5 5 6 4 2 5 6 4 6 5 5 7 9 8 5 5 1 5 4 3 3 4 3 4 5 4 4 4 3 2 3 3 3 3 3 4 5 5 5 5 4 4 4 5
2 3 4 4 4 9 6 6 9 5 9 5 9 8 8 8 7 4 3 2 2 3 4 4 5 4 5 5 2 2 3 3 2 2 3 4 5 5 5 4 4 4 4 5
8 6 5 5 4 10 5 10 10 12 3 6 8 8 8 7 5 4 2 1 3 3 4 4 5 5 5 5 3 3 3 2 1 3 4 5 5 4 4 5 5 5 5 6
7 9 8 10 10 6 9 9 7 6 6 7 8 7 8 6 4 3 1 0 2 3 3 3 4 4 5 5 4 4 4 1 2 4 4 4 5 5 4 4 5 5 5 5
4 4 4 5 8 6 8 5 4 6 7 7 8 8 8 6 5 4 2 1 1 2 2 3 3 4 5 5 5 4 3 1 3 4 3 3 3 4 4 4 4 4 4 5
6 7 4 6 7 3 5 9 8 6 5 6 6 7 8 8 6 5 3 2 1 1 2 2 2 3 4 5 5 5 3 2 3 3 3 3 2 2 2 2 2 2 2 2
8 10 10 9 8 8 7 9 10 9 8 9 9 7 5 7 7 5 4 3 2 1 1 2 2 2 3 4 5 5 3 1 3 2 2 2 1 1 1 1 2 2 1 3
Wind_Direction
30 50 33 354 357 18 92 108 99 69 88 82 88 79 48 33 34 27 18 10 3 357 350 351 353 352 349 351 350 345 346 345 344 336 319 279 246 229 216 210 203 196 193 193
50 35 352 1 17 44 70 86 59 65 92 102 106 82 50 39 33 20 11 3 355 348 349 348 348 349 351 347 345 342 343 341 342 332 312 285 276 249 223 210 197 188 183 184
86 1 355 45 36 34 49 98 340 283 80 85 120 67 17 2 14 11 9 1 355 350 345 340 342 342 343 344 343 340 337 338 339 334 323 308 290 273 219 203 201 192 186 181
82 14 28 50 40 29 324 326 295 244 116 54 15 43 358 334 344 360 357 353 349 344 341 339 340 339 338 336 334 333 332 336 340 340 338 329 308 284 266 245 208 187 186 176
74 18 34 30 354 355 289 323 3 100 115 69 24 65 329 339 350 346 344 344 341 339 337 335 335 333 331 331 331 331 333 338 341 344 343 338 327 305 299 287 211 188 180 176
51 17 45 350 332 4 337 64 61 53 69 55 344 41 349 347 332 329 336 339 337 335 334 332 333 335 333 335 335 337 340 341 344 347 348 349 346 347 356 5 59 101 115 128
25 9 360 12 9 7 33 66 45 25 34 24 331 63 333 310 326 328 331 334 337 339 341 339 340 343 342 338 339 344 346 344 345 350 353 353 354 5 18 17 41 67 72 80
71 3 350 12 30 342 29 83 120 141 152 311 12 28 294 308 332 336 334 336 344 346 345 345 345 345 342 344 348 350 349 346 348 354 354 358 3 11 17 23 32 42 47 53
123 119 325 20 30 55 53 58 119 118 109 75 15 348 337 342 347 348 347 349 351 347 346 347 349 351 350 354 356 355 355 355 355 357 357 3 6 13 18 22 32 37 38 51
125 117 342 339 33 35 82 98 72 80 104 76 5 2 335 331 335 337 340 341 338 339 343 346 350 352 354 359 357 1 4 1 3 7 9 10 9 12 16 24 27 32 37 47
99 106 5 27 34 353 22 48 74 80 93 121 60 321 298 301 312 320 322 325 326 332 336 339 341 344 350 359 5 9 10 10 12 11 12 16 14 15 22 27 24 23 33 45
103 105 69 345 344 95 93 78 110 116 94 105 130 275 286 301 306 313 316 321 324 327 332 335 338 345 356 1 2 6 8 10 10 9 14 18 17 20 24 24 22 25 32 36
120 98 73 358 353 15 54 56 85 106 105 104 132 280 305 332 329 327 326 329 332 333 339 343 346 350 356 357 357 1 4 5 6 10 16 20 20 22 23 24 25 31 33 35
104 85 124 148 221 234 52 59 106 105 115 145 213 269 307 321 323 324 329 330 330 333 338 343 344 345 348 350 354 359 359 1 6 12 20 22 19 20 21 25 30 33 36 39
90 90 84 87 97 105 97 98 117 123 159 164 211 244 266 276 285 297 309 323 334 339 341 342 340 339 342 348 351 355 359 1 5 16 20 14 13 19 24 27 28 31 35 38
73 107 90 51 65 79 49 200 149 149 170 187 219 263 253 260 275 294 308 323 330 331 334 337 337 339 340 344 344 351 356 357 6 17 15 11 17 22 23 25 28 31 30 29
85 114 108 206 18 12 278 218 192 198 197 178 203 235 246 258 275 282 294 307 310 313 322 330 328 324 321 325 331 340 342 356 15 18 15 15 20 24 20 26 31 28 25 28
119 101 109 116 90 262 249 208 173 184 213 201 216 233 223 230 259 273 266 276 299 312 323 324 322 320 316 316 329 337 356 11 21 21 18 16 21 24 23 31 31 23 22 26
122 126 116 122 201 279 279 188 169 175 243 206 203 224 228 220 352 312 277 272 281 297 305 303 307 306 312 319 328 357 5 11 24 24 22 20 25 30 30 32 26 19 28 30
71 94 111 131 191 249 252 195 149 109 268 214 185 199 186 133 110 271 284 308 316 328 329 331 333 338 344 334 338 13 359 6 13 19 34 38 41 43 37 33 29 24 32 27
125 83 126 162 227 262 242 147 120 151 242 201 176 180 169 180 204 231 294 313 332 343 348 354 358 358 343 337 360 12 359 349 353 59 65 55 49 51 43 38 32 30 29 27
173 164 183 159 206 258 189 147 180 210 208 166 171 173 177 202 225 244 264 310 359 358 355 360 2 355 349 359 18 11 351 331 68 91 80 65 51 48 47 47 38 31 27 29
192 187 182 188 212 230 187 193 200 168 169 176 173 178 177 187 209 213 206 311 353 357 356 356 359 357 358 3 12 3 333 344 104 100 92 78 66 53 47 50 44 35 30 30
240 164 167 244 258 234 220 232 197 182 181 177 171 167 167 179 192 192 188 221 322 339 347 350 360 3 352 348 356 348 334 48 114 114 112 96 80 60 45 45 46 45 34 28
217 166 192 250 266 259 230 209 198 187 171 156 159 168 173 174 183 185 192 213 244 300 326 344 350 341 335 340 347 349 356 75 111 121 127 115 99 85 53 41 36 41 23 12
193 177 178 218 214 190 223 199 178 168 173 170 164 169 176 176 180 178 189 203 210 243 293 328 336 333 333 341 343 345 351 62 134 135 147 154 151 136 88 10 347 335 332 10